sat.trackr.live / text

‹ back to catalog

STARLINK-35356

NORAD 65836 · 2025-221P

PAYLOAD ACTIVE UNKNOWN

§ Identity

Operator
Country
US
Launch date
2025-09-29
Launch site
AFWTR
Launch vehicle
Mass (kg)
RCS (m²)

Purposes: comms

External: N2YO · Heavens-Above · Gunter

§ Orbital elements

Epoch: 2026-05-25T02:14:56.918112Z

Period
94.10 min
Inclination
53.1580°
Eccentricity
0.0000984
Mean motion
15.30206072 rev/d
Perigee alt
474.5 km
Apogee alt
475.9 km
Semi-major
6,853.3 km
B*
3.3542e-4
RAAN
93.2754°
Arg perigee
100.7828°
Mean anomaly
259.3283°
Rev number
3,643

§ Raw data

STARLINK-353561 65836U 25221P   26145.09371433  .00009590  00000+0  33542-3 0  99902 65836  53.1580  93.2754 0000984 100.7828 259.3283 15.30206072 36433

JSON: /api/v1/satellites/65836 · /tle

For live sub-satellite position, see the globe view (requires WebGL).

§ Visibility from observer

Set your observer location to see the next 7 days of passes ≥ 10°. The values pass through the URL so the page stays shareable.

No JS? Fill the form by hand. The geolocation button needs JavaScript.